Weather History for LEVT - August, 2013

Change the Weather History Date:

Wednesday, August 28, 2013

  Actual Average Record
Temperature  
Mean Temperature 64 °F -  
Max Temperature 75 °F 74 °F 96 °F (2007)
Min Temperature 52 °F 48 °F 42 °F (2011)
Degree Days  
Heating Degree Days 2    
Growing Degree Days 14 (Base 50)    
Moisture  
Dew Point 53 °F    
Average Humidity 73    
Maximum Humidity 100    
Minimum Humidity 42    
Precipitation  
Precipitation 0.00 in - - ()
Sea Level Pressure  
Sea Level Pressure 30.12 in    
Wind  
Wind Speed 5 mph ()    
Max Wind Speed 29 mph    
Max Gust Speed -    
Visibility 6.4 miles    
Events      
Averages and records for this station are not official NWS values.
T = Trace of Precipitation, MM = Missing Value Source: Averaged Metar Reports

Daily Weather History Graph

Daily Weather History Graph

Search for Another Location

Airport or City:

Trip Planner

Search our weather history database for the weather conditions in past years. The results will help you decide how hot, cold, wet, or windy it might be!

Date:

Astronomy

Aug. 28, 2013 Rise Set
Actual Time 7:31 AM CEST 8:52 PM CEST
Civil Twilight 7:01 AM CEST 9:21 PM CEST
Nautical Twilight 6:26 AM CEST 9:56 PM CEST
Astronomical Twilight 5:48 AM CEST 10:34 PM CEST
Moon 12:25 AM CEST (8/28) 3:20 PM CEST (8/28)
Length of Visible Light 14h 19m
Length of Day
13h 21m
Waning Gibbous, 50% of the Moon is Illuminated
Aug 28
Waning Gibbous
Sep 5
New
Sep 12
First Quarter
Sep 19
Full
Sep 27
Last Quarter

Hourly Weather History & Observations

Time (CEST) Temp. Dew Point Humidity Pressure Visibility Wind Dir Wind Speed Gust Speed Precip Events Conditions
12:00 AM 57.2 °F 53.6 °F 88% 30.12 in 6.2 mi Calm Calm - N/A   Scattered Clouds
12:30 AM 55.4 °F 51.8 °F 88% 30.15 in 6.2 mi Calm Calm - N/A   Scattered Clouds
1:00 AM 53.6 °F 51.8 °F 94% 30.12 in 6.2 mi Variable 2.3 mph - N/A   Scattered Clouds
1:30 AM 53.6 °F 51.8 °F 94% 30.12 in 6.2 mi Calm Calm - N/A   Scattered Clouds
2:00 AM 51.8 °F 50.0 °F 94% 30.12 in 6.2 mi Calm Calm - N/A   Scattered Clouds
2:30 AM 51.8 °F 50.0 °F 94% 30.12 in 6.2 mi Calm Calm - N/A   Scattered Clouds
3:00 AM 53.6 °F 51.8 °F 94% 30.12 in 6.2 mi Calm Calm - N/A   Scattered Clouds
3:30 AM 53.6 °F 51.8 °F 94% 30.12 in 6.2 mi East 1.2 mph - N/A   Scattered Clouds
4:00 AM 53.6 °F 51.8 °F 94% 30.12 in 6.2 mi WSW 1.2 mph - N/A   Scattered Clouds
4:30 AM 53.6 °F 53.6 °F 100% 30.12 in 6.2 mi WNW 1.2 mph - N/A   Scattered Clouds
5:00 AM 53.6 °F 51.8 °F 94% 30.12 in 6.2 mi South 1.2 mph - N/A   Scattered Clouds
5:30 AM 53.6 °F 51.8 °F 94% 30.09 in 6.2 mi Calm Calm - N/A   Scattered Clouds
6:00 AM 55.4 °F 53.6 °F 94% 30.12 in 6.2 mi Variable 1.2 mph - N/A   Mostly Cloudy
6:30 AM 55.4 °F 53.6 °F 94% 30.09 in 6.2 mi Calm Calm - N/A   Mostly Cloudy
7:00 AM 55.4 °F 53.6 °F 94% 30.12 in 6.2 mi South 1.2 mph - N/A   Mostly Cloudy
7:30 AM 55.4 °F 55.4 °F 100% 30.12 in 5.6 mi SSW 1.2 mph - N/A   Mostly Cloudy
8:00 AM 56 °F 55 °F 95% 30.12 in 6 mi Calm Calm - -   Mist
8:00 AM 55.4 °F 55.4 °F 100% 30.12 in 5.6 mi Calm Calm - N/A   Mostly Cloudy
8:30 AM 57.2 °F 55.4 °F 94% 30.12 in 5.6 mi Calm Calm - N/A   Mostly Cloudy
9:00 AM 59.0 °F 57.2 °F 94% 30.12 in 5.6 mi Calm Calm - N/A   Mostly Cloudy
9:30 AM 62.6 °F 55.4 °F 77% 30.12 in 5.6 mi Calm Calm - N/A   Scattered Clouds
10:00 AM 62.6 °F 53.6 °F 72% 30.12 in 5.6 mi North 3.5 mph - N/A   Scattered Clouds
10:30 AM 62.6 °F 55.4 °F 77% 30.15 in 6.2 mi North 3.5 mph - N/A   Mostly Cloudy
11:00 AM 69 °F 55 °F 52% 30.10 in 6 mi NNE 11.2 mph - -   Mostly Cloudy
11:00 AM 66.2 °F 53.6 °F 64% 30.15 in 6.2 mi NNE 8.1 mph - N/A   Mostly Cloudy
11:30 AM 66.2 °F 53.6 °F 64% 30.15 in 6.2 mi NNE 9.2 mph - N/A   Mostly Cloudy
12:00 PM 66.2 °F 53.6 °F 64% 30.15 in 6.2 mi NNE 11.5 mph - N/A   Mostly Cloudy
12:30 PM 66.2 °F 55.4 °F 68% 30.15 in 6.2 mi NNE 10.4 mph - N/A   Mostly Cloudy
1:00 PM 66.2 °F 53.6 °F 64% 30.15 in 6.2 mi NNE 11.5 mph - N/A   Mostly Cloudy
1:30 PM 69.8 °F 53.6 °F 56% 30.12 in 6.2 mi NE 11.5 mph - N/A   Mostly Cloudy
2:00 PM 72 °F 56 °F 47% 30.06 in 7 mi NNE 11.5 mph - -   Mostly Cloudy
2:00 PM 68.0 °F 53.6 °F 60% 30.12 in 6.2 mi NNE 11.5 mph - N/A   Mostly Cloudy
2:30 PM 66.2 °F 53.6 °F 64% 30.12 in 6.2 mi North 17.3 mph - N/A   Scattered Clouds
3:00 PM 66.2 °F 53.6 °F 64% 30.12 in 6.2 mi North 15.0 mph - N/A   Mostly Cloudy
3:30 PM 69.8 °F 51.8 °F 53% 30.12 in 6.2 mi North 11.5 mph - N/A   Scattered Clouds
4:00 PM 69.8 °F 51.8 °F 53% 30.09 in 6.2 mi North 15.0 mph - N/A   Scattered Clouds
4:30 PM 69.8 °F 51.8 °F 53% 30.09 in 6.2 mi North 13.8 mph - N/A   Scattered Clouds
5:00 PM 73 °F 55 °F 43% 30.05 in 12 mi NNE 29.1 mph - -   Partly Cloudy
5:00 PM 69.8 °F 53.6 °F 56% 30.09 in 6.2 mi North 11.5 mph - N/A   Scattered Clouds
5:30 PM 69.8 °F 50.0 °F 49% 30.12 in 6.2 mi ENE 16.1 mph - N/A   Scattered Clouds
6:00 PM 69.8 °F 50.0 °F 49% 30.09 in 6.2 mi NE 18.4 mph - N/A   Scattered Clouds
6:30 PM 69.8 °F 50.0 °F 49% 30.09 in 6.2 mi NNE 15.0 mph - N/A   Scattered Clouds
7:00 PM 69.8 °F 48.2 °F 46% 30.12 in 6.2 mi North 15.0 mph - N/A   Partly Cloudy
7:30 PM 68.0 °F 48.2 °F 49% 30.12 in 6.2 mi NNE 15.0 mph - N/A   Partly Cloudy
8:00 PM 68 °F 50 °F 42% 30.07 in 12 mi North 15.0 mph - -   Scattered Clouds
8:00 PM 66.2 °F 48.2 °F 52% 30.12 in 6.2 mi North 12.7 mph - N/A   Partly Cloudy
8:30 PM 64.4 °F 48.2 °F 56% 30.12 in 6.2 mi North 13.8 mph - N/A   Partly Cloudy
9:00 PM 62.6 °F 50.0 °F 63% 30.12 in 6.2 mi North 11.5 mph - N/A   Partly Cloudy
9:30 PM 60.8 °F 50.0 °F 68% 30.15 in 6.2 mi North 10.4 mph - N/A   Partly Cloudy
10:00 PM 60.8 °F 50.0 °F 68% 30.15 in 6.2 mi North 8.1 mph - N/A   Partly Cloudy
10:30 PM 60.8 °F 51.8 °F 72% 30.15 in 6.2 mi NNE 8.1 mph - N/A   Scattered Clouds
11:00 PM 59.0 °F 51.8 °F 77% 30.18 in 6.2 mi Variable 1.2 mph - N/A   Partly Cloudy
11:30 PM 57.2 °F 51.8 °F 82% 30.18 in 6.2 mi Variable 2.3 mph - N/A   Partly Cloudy